• In Uzbekistan
  • List of Countries
  • For 7 days
  • Water Temperature
  • Satellite Maps
  • Weather Map
  • Weather Widgets
  • user-avatar
    Login

    Hourly Weather Sukhumi

    Today, 19 November, Sunday

    Time Temperature Precipitation Wind Pressure Humidity
    00:00 +14°C° 0 mm 4 mps 754 mmHg 43%
    01:00 +14°C° 0 mm 4 mps 754 mmHg 42%
    02:00 +14°C° 0 mm 4 mps 754 mmHg 41%
    03:00 +14°C° 0 mm 4 mps 754 mmHg 41%
    04:00 +14°C° 0 mm 4 mps 753 mmHg 40%
    05:00 +14°C° 0 mm 4 mps 753 mmHg 40%
    06:00 +14°C° 0 mm 4 mps 753 mmHg 39%
    07:00 +15°C° 0 mm 4 mps 753 mmHg 39%
    08:00 +17°C° 0 mm 4 mps 752 mmHg 39%
    09:00 +17°C° 0 mm 4 mps 752 mmHg 39%
    10:00 +19°C° 0 mm 4 mps 752 mmHg 37%
    11:00 +21°C° 0 mm 4 mps 752 mmHg 35%
    12:00 +22°C° 0 mm 4 mps 751 mmHg 33%
    13:00 +22°C° 0 mm 3 mps 751 mmHg 36%
    14:00 +21°C° 0 mm 3 mps 751 mmHg 38%
    15:00 +21°C° 0 mm 3 mps 750 mmHg 40%
    16:00 +20°C° 0 mm 3 mps 750 mmHg 41%
    17:00 +18°C° 0 mm 3 mps 751 mmHg 42%
    18:00 +17°C° 0 mm 4 mps 751 mmHg 42%
    19:00 +17°C° 0 mm 4 mps 751 mmHg 42%
    20:00 +17°C° 0 mm 4 mps 751 mmHg 42%
    21:00 +17°C° 0 mm 4 mps 750 mmHg 42%
    22:00 +15°C° 0 mm 4 mps 751 mmHg 43%
    23:00 +15°C° 0 mm 4 mps 751 mmHg 44%

    Tomorrow, 20 November, Monday

    Time Temperature Precipitation Wind Pressure Humidity
    00:00 +15°C° 0 mm 4 mps 751 mmHg 45%
    01:00 +15°C° 0 mm 4 mps 751 mmHg 46%
    02:00 +14°C° 0 mm 4 mps 751 mmHg 47%
    03:00 +14°C° 0 mm 4 mps 751 mmHg 48%
    04:00 +14°C° 0 mm 4 mps 751 mmHg 50%
    05:00 +14°C° 0 mm 4 mps 751 mmHg 52%
    06:00 +14°C° 0 mm 4 mps 751 mmHg 55%
    07:00 +14°C° 0.1 mm 4 mps 751 mmHg 56%
    08:00 +15°C° 0.1 mm 4 mps 751 mmHg 58%
    09:00 +17°C° 0.1 mm 4 mps 751 mmHg 59%
    10:00 +18°C° 0.1 mm 4 mps 751 mmHg 57%
    11:00 +19°C° 0.1 mm 4 mps 750 mmHg 54%
    12:00 +20°C° 0.1 mm 4 mps 750 mmHg 51%
    13:00 +20°C° 0.1 mm 4 mps 749 mmHg 52%
    14:00 +20°C° 0.1 mm 3 mps 749 mmHg 52%
    15:00 +20°C° 0.1 mm 3 mps 749 mmHg 53%
    16:00 +18°C° 0 mm 3 mps 749 mmHg 56%
    17:00 +17°C° 0 mm 4 mps 749 mmHg 58%
    18:00 +15°C° 0 mm 4 mps 749 mmHg 61%
    19:00 +15°C° 0 mm 4 mps 748 mmHg 60%
    20:00 +14°C° 0 mm 4 mps 748 mmHg 58%
    21:00 +14°C° 0 mm 4 mps 748 mmHg 56%
    22:00 +14°C° 0 mm 4 mps 748 mmHg 57%
    23:00 +14°C° 0 mm 4 mps 748 mmHg 57%

    Day after tomorrow, 21 November, Tuesday

    Time Temperature Precipitation Wind Pressure Humidity
    00:00 +14°C° 0 mm 4 mps 747 mmHg 57%
    01:00 +14°C° 0.1 mm 4 mps 747 mmHg 58%
    02:00 +14°C° 0.1 mm 5 mps 747 mmHg 59%
    03:00 +14°C° 0.1 mm 5 mps 746 mmHg 60%
    04:00 +14°C° 0.1 mm 5 mps 746 mmHg 62%
    05:00 +14°C° 0.1 mm 5 mps 746 mmHg 64%
    06:00 +14°C° 0.1 mm 5 mps 745 mmHg 66%
    07:00 +15°C° 0.1 mm 5 mps 745 mmHg 66%
    08:00 +15°C° 0.1 mm 5 mps 745 mmHg 65%
    09:00 +16°C° 0.1 mm 5 mps 745 mmHg 65%
    10:00 +17°C° 0.1 mm 4 mps 745 mmHg 62%
    11:00 +18°C° 0.1 mm 4 mps 745 mmHg 60%
    12:00 +19°C° 0.1 mm 4 mps 744 mmHg 57%
    13:00 +18°C° 0.2 mm 3 mps 745 mmHg 60%
    14:00 +18°C° 0.2 mm 3 mps 745 mmHg 63%
    15:00 +18°C° 0.2 mm 3 mps 745 mmHg 66%
    16:00 +17°C° 0.2 mm 3 mps 746 mmHg 69%
    17:00 +16°C° 0.2 mm 3 mps 746 mmHg 73%
    18:00 +14°C° 0.2 mm 4 mps 747 mmHg 76%
    19:00 +14°C° 1.5 mm 4 mps 747 mmHg 81%
    20:00 +13°C° 1.5 mm 4 mps 748 mmHg 85%
    21:00 +13°C° 1.5 mm 5 mps 748 mmHg 89%
    22:00 +13°C° 2.6 mm 5 mps 749 mmHg 92%
    23:00 +11°C° 2.6 mm 6 mps 750 mmHg 95%

    22 November, Wednesday

    Time Temperature Precipitation Wind Pressure Humidity
    00:00 +11°C° 2.6 mm 7 mps 750 mmHg 97%
    01:00 +10°C° 1.6 mm 6 mps 751 mmHg 97%
    02:00 +9°C° 1.6 mm 6 mps 751 mmHg 96%
    03:00 +9°C° 1.6 mm 5 mps 752 mmHg 96%
    04:00 +8°C° 0.8 mm 5 mps 752 mmHg 95%
    05:00 +8°C° 0.8 mm 5 mps 752 mmHg 94%
    06:00 +8°C° 0.8 mm 5 mps 753 mmHg 93%
    07:00 +8°C° 0.5 mm 4 mps 753 mmHg 93%
    08:00 +7°C° 0.5 mm 4 mps 754 mmHg 92%
    09:00 +8°C° 0.5 mm 3 mps 754 mmHg 91%
    10:00 +8°C° 0.2 mm 3 mps 754 mmHg 89%
    11:00 +8°C° 0.2 mm 2 mps 754 mmHg 86%
    12:00 +8°C° 0.2 mm 2 mps 754 mmHg 83%
    13:00 +8°C° 0 mm 2 mps 754 mmHg 80%
    14:00 +8°C° 0 mm 2 mps 753 mmHg 77%
    15:00 +8°C° 0 mm 2 mps 753 mmHg 74%
    16:00 +7°C° 0 mm 2 mps 753 mmHg 76%
    17:00 +5°C° 0 mm 3 mps 753 mmHg 77%
    18:00 +4°C° 0 mm 3 mps 753 mmHg 79%
    19:00 +4°C° 0.5 mm 4 mps 753 mmHg 76%
    20:00 +4°C° 0.5 mm 4 mps 753 mmHg 74%
    21:00 +3°C° 0.5 mm 5 mps 752 mmHg 71%
    22:00 +3°C° 2.7 mm 5 mps 752 mmHg 77%
    23:00 +3°C° 2.7 mm 5 mps 752 mmHg 82%

    23 November, Thursday

    Time Temperature Precipitation Wind Pressure Humidity
    00:00 +3°C° 2.7 mm 5 mps 752 mmHg 88%
    01:00 +3°C° 2.3 mm 5 mps 752 mmHg 90%
    02:00 +4°C° 2.3 mm 4 mps 752 mmHg 92%
    03:00 +5°C° 2.3 mm 4 mps 753 mmHg 95%
    04:00 +4°C° 1 mm 4 mps 753 mmHg 94%
    05:00 +4°C° 1 mm 4 mps 754 mmHg 92%
    06:00 +4°C° 1 mm 4 mps 754 mmHg 91%
    07:00 +4°C° 0.8 mm 4 mps 755 mmHg 91%
    08:00 +4°C° 0.8 mm 4 mps 756 mmHg 90%
    09:00 +5°C° 0.8 mm 4 mps 757 mmHg 90%
    10:00 +5°C° 0.5 mm 3 mps 757 mmHg 88%
    11:00 +7°C° 0.5 mm 3 mps 757 mmHg 86%
    12:00 +8°C° 0.5 mm 3 mps 758 mmHg 84%
    13:00 +7°C° 0.5 mm 2 mps 758 mmHg 84%
    14:00 +7°C° 0.5 mm 2 mps 758 mmHg 84%
    15:00 +7°C° 0.5 mm 2 mps 759 mmHg 84%
    16:00 +7°C° 0.2 mm 2 mps 759 mmHg 85%
    17:00 +6°C° 0.2 mm 2 mps 760 mmHg 86%
    18:00 +5°C° 0.2 mm 2 mps 760 mmHg 88%
    19:00 +4°C° 0 mm 2 mps 761 mmHg 85%
    20:00 +3°C° 0 mm 2 mps 762 mmHg 83%
    21:00 +2°C° 0 mm 2 mps 762 mmHg 81%
    22:00 +2°C° 0 mm 2 mps 763 mmHg 80%
    23:00 +2°C° 0 mm 2 mps 763 mmHg 79%

    24 November, Friday

    Time Temperature Precipitation Wind Pressure Humidity
    00:00 +2°C° 0 mm 2 mps 763 mmHg 78%
    01:00 +2°C° 0 mm 2 mps 763 mmHg 79%
    02:00 +2°C° 0 mm 3 mps 764 mmHg 80%
    03:00 +2°C° 0 mm 3 mps 764 mmHg 81%
    04:00 +2°C° 0.1 mm 3 mps 764 mmHg 80%
    05:00 +2°C° 0.1 mm 3 mps 764 mmHg 80%
    06:00 +2°C° 0.1 mm 3 mps 764 mmHg 79%
    07:00 +3°C° 0 mm 3 mps 764 mmHg 78%
    08:00 +4°C° 0 mm 3 mps 764 mmHg 76%
    09:00 +5°C° 0 mm 3 mps 765 mmHg 75%
    10:00 +7°C° 0 mm 3 mps 765 mmHg 75%
    11:00 +8°C° 0 mm 3 mps 764 mmHg 74%
    12:00 +9°C° 0 mm 3 mps 764 mmHg 73%
    13:00 +9°C° 0 mm 2 mps 764 mmHg 76%
    14:00 +9°C° 0 mm 2 mps 764 mmHg 78%
    15:00 +8°C° 0 mm 2 mps 764 mmHg 80%
    16:00 +7°C° 0 mm 2 mps 764 mmHg 82%
    17:00 +6°C° 0 mm 2 mps 764 mmHg 85%
    18:00 +5°C° 0 mm 2 mps 765 mmHg 87%
    19:00 +5°C° 0 mm 2 mps 765 mmHg 85%
    20:00 +5°C° 0 mm 2 mps 765 mmHg 83%
    21:00 +4°C° 0 mm 3 mps 765 mmHg 81%
    22:00 +3°C° 0 mm 3 mps 765 mmHg 80%
    23:00 +3°C° 0 mm 3 mps 765 mmHg 80%
    Show more